Weather History for Hibbing, MN

Change the Weather History Date:

Friday, January 25, 2013

  Actual Average Record
Temperature  
Mean Temperature 4 °F -  
Max Temperature 12 °F 15 °F 48 °F (1973)
Min Temperature -5 °F -6 °F -33 °F (1966)
Degree Days  
Heating Degree Days 62    
Moisture  
Dew Point -1 °F    
Average Humidity 75    
Maximum Humidity 85    
Minimum Humidity 61    
Precipitation  
Precipitation 0.05 in - - ()
Sea Level Pressure  
Sea Level Pressure 30.02 in    
Wind  
Wind Speed 6 mph (NW)    
Max Wind Speed 17 mph    
Max Gust Speed -    
Visibility 6 miles    
Events Snow    
Averages and records for this station are not official NWS values.
T = Trace of Precipitation, MM = Missing Value Source: NWS Daily Summary

Daily Weather History Graph

Daily Weather History Graph

Search for Another Location

Airport:

Trip Planner

Search our weather history database for the weather conditions in past years. The results will help you decide how hot, cold, wet, or windy it might be!

Date:

Astronomy

Jan. 25, 2013 Rise Set
Actual Time 7:45 AM CST 5:02 PM CST
Civil Twilight 7:11 AM CST 5:36 PM CST
Nautical Twilight 6:34 AM CST 6:13 PM CST
Astronomical Twilight 5:58 AM CST 6:49 PM CST
Moon 4:00 PM CST (1/25) 6:25 AM CST (1/25)
Length of Visible Light 10h 24m
Length of Day
9h 17m
Waxing Gibbous, 98% of the Moon is Illuminated
Jan 25
Waxing Gibbous
Jan 26
Full
Feb 3
Last Quarter
Feb 10
New
Feb 17
First Quarter

Hourly Weather History & Observations

Time (CST) Temp. Windchill Dew Point Humidity Pressure Visibility Wind Dir Wind Speed Gust Speed Precip Events Conditions
12:53 AM 3.9 °F -9.4 °F -2.9 °F 73% 30.15 in 4.0 mi SSE 8.1 mph - 0.00 in Snow Light Snow
1:08 AM 3.2 °F -7.8 °F -2.2 °F 78% 30.02 in 3.0 mi SSE 5.8 mph - 0.00 in Snow Light Snow
1:17 AM 3.2 °F -9.1 °F -2.2 °F 78% 30.01 in 1.8 mi SSE 6.9 mph - 0.00 in Snow Light Snow
1:33 AM 3.2 °F -9.1 °F -2.2 °F 78% 30.00 in 1.0 mi SSE 6.9 mph - 0.01 in Snow Light Snow
1:53 AM 3.9 °F -6.9 °F -2.0 °F 76% 30.11 in 2.0 mi SSE 5.8 mph - 0.01 in Snow Light Snow
1:58 AM 3.2 °F -7.8 °F -2.2 °F 78% 29.98 in 3.0 mi SSE 5.8 mph - 0.00 in Snow Light Snow
2:53 AM 5.0 °F -4.1 °F -0.9 °F 76% 30.06 in 3.0 mi SSE 4.6 mph - 0.00 in Snow Light Snow
3:53 AM 5.0 °F -4.1 °F -0.0 °F 80% 30.02 in 3.0 mi SSE 4.6 mph - 0.00 in Snow Light Snow
4:10 AM 6.8 °F -2.0 °F -0.4 °F 72% 29.89 in 2.0 mi SSE 4.6 mph - 0.00 in Snow Light Snow
4:14 AM 6.8 °F -2.0 °F -0.4 °F 72% 29.89 in 1.8 mi South 4.6 mph - 0.00 in Snow Light Snow
4:53 AM 6.1 °F -4.3 °F 1.0 °F 80% 29.97 in 2.5 mi SSE 5.8 mph - 0.00 in Snow Light Snow
5:01 AM 6.8 °F -0.1 °F 1.4 °F 79% 29.86 in 3.0 mi SSE 3.5 mph - 0.00 in Snow Light Snow
5:53 AM 7.0 °F 0.1 °F 1.0 °F 77% 29.95 in 3.0 mi SSE 3.5 mph - 0.01 in Snow Light Snow
6:07 AM 6.8 °F -0.1 °F 1.4 °F 79% 29.83 in 1.8 mi SSE 3.5 mph - 0.00 in Snow Light Snow
6:33 AM 6.8 °F -0.1 °F 1.4 °F 79% 29.82 in 1.0 mi SSE 3.5 mph - 0.01 in Snow Light Snow
6:48 AM 6.8 °F - 1.4 °F 79% 29.82 in 1.5 mi Calm Calm - 0.01 in Snow Light Snow
6:53 AM 7.0 °F - 1.9 °F 80% 29.93 in 1.2 mi Calm Calm - 0.01 in Snow Light Snow
7:30 AM 6.8 °F - 1.4 °F 79% 29.82 in 1.8 mi Calm Calm - 0.02 in Snow Light Snow
7:39 AM 6.8 °F - 1.4 °F 79% 29.82 in 2.0 mi Calm Calm - 0.02 in Snow Light Snow
7:53 AM 7.0 °F - 1.9 °F 80% 29.93 in 1.8 mi Calm Calm - 0.02 in Snow Light Snow
8:06 AM 6.8 °F - 1.4 °F 79% 29.82 in 3.0 mi Calm Calm - 0.00 in Snow Light Snow
8:29 AM 6.8 °F - 1.4 °F 79% 29.83 in 2.0 mi Calm Calm - 0.00 in Snow Light Snow
8:53 AM 6.1 °F - 1.0 °F 80% 29.95 in 2.0 mi Calm Calm - 0.00 in Snow Light Snow
9:03 AM 5.0 °F - 1.4 °F 85% 29.84 in 5.0 mi Calm Calm - 0.00 in   Overcast
9:32 AM 3.2 °F - -0.4 °F 85% 29.85 in 7.0 mi Calm Calm - 0.00 in   Overcast
9:53 AM 7.0 °F - 1.9 °F 80% 29.97 in 10.0 mi Calm Calm - 0.00 in   Mostly Cloudy
10:04 AM 6.8 °F -0.1 °F 1.4 °F 79% 29.87 in 10.0 mi NW 3.5 mph - N/A   Scattered Clouds
10:33 AM 8.6 °F -6.3 °F 1.4 °F 73% 29.88 in 8.0 mi NW 11.5 mph - 0.00 in   Mostly Cloudy
10:53 AM 10.0 °F -5.2 °F 1.9 °F 70% 29.99 in 10.0 mi NW 12.7 mph - 0.00 in   Mostly Cloudy
11:00 AM 10.4 °F -3.3 °F 3.2 °F 73% 29.89 in 10.0 mi NW 10.4 mph - N/A   Mostly Cloudy
11:53 AM 12.0 °F -4.0 °F 1.9 °F 64% 30.01 in 10.0 mi NW 15.0 mph - N/A   Overcast
12:53 PM 10.9 °F -4.1 °F 1.0 °F 64% 30.04 in 5.0 mi NNW 12.7 mph - N/A Snow Blowing Snow
1:10 PM 10.4 °F -3.3 °F 1.4 °F 67% 29.94 in 6.0 mi NNW 10.4 mph - 0.00 in Snow Light Snow
1:53 PM 10.9 °F -3.4 °F 1.0 °F 64% 30.07 in 10.0 mi NNW 11.5 mph - 0.00 in   Overcast
2:53 PM 10.9 °F -4.1 °F 1.9 °F 67% 30.10 in 4.0 mi NNW 12.7 mph - 0.00 in Snow Light Snow
3:53 PM 10.0 °F -7.6 °F -0.9 °F 61% 30.14 in 7.0 mi NW 17.3 mph - 0.00 in Snow Light Snow
4:24 PM 8.6 °F -7.7 °F 1.4 °F 73% 30.05 in 4.0 mi NW 13.8 mph - 0.00 in Snow Light Snow
4:43 PM 8.6 °F -8.3 °F -0.4 °F 67% 30.07 in 10.0 mi NNW 15.0 mph - 0.00 in   Overcast
4:53 PM 8.1 °F -8.4 °F -0.9 °F 67% 30.18 in 10.0 mi NW 13.8 mph - 0.00 in   Overcast
5:08 PM 8.6 °F -7.7 °F -0.4 °F 67% 30.08 in 10.0 mi NW 13.8 mph - N/A   Overcast
5:16 PM 6.8 °F -9.3 °F -0.4 °F 72% 30.08 in 7.0 mi NW 12.7 mph - N/A   Overcast
5:25 PM 6.8 °F -7.8 °F -0.4 °F 72% 30.08 in 6.0 mi NW 10.4 mph - 0.00 in Snow Light Snow
5:53 PM 3.9 °F -10.4 °F -2.9 °F 73% 30.20 in 10.0 mi NW 9.2 mph - 0.00 in   Mostly Cloudy
6:18 PM 1.4 °F -13.5 °F -4.0 °F 78% 30.11 in 10.0 mi NW 9.2 mph - N/A   Mostly Cloudy
6:37 PM -0.4 °F -17.6 °F -5.8 °F 78% 30.12 in 10.0 mi NW 11.5 mph - N/A   Scattered Clouds
6:53 PM 3.9 °F -13.0 °F -2.9 °F 73% 30.24 in 10.0 mi NNW 12.7 mph - N/A   Clear
7:53 PM 1.9 °F -14.7 °F -5.1 °F 72% 30.26 in 10.0 mi NNW 11.5 mph - N/A   Clear
8:53 PM -5.1 °F -19.1 °F -9.9 °F 80% 30.28 in 10.0 mi NNW 6.9 mph - N/A   Clear
9:40 PM -2.2 °F -18.9 °F -7.6 °F 78% 30.16 in 10.0 mi NNW 10.4 mph - N/A   Scattered Clouds
9:53 PM -2.0 °F -17.7 °F -8.0 °F 76% 30.28 in 10.0 mi NNW 9.2 mph - N/A   Partly Cloudy
10:53 PM -4.0 °F -12.4 °F -9.0 °F 79% 30.32 in 10.0 mi NW 3.5 mph - N/A   Clear
11:53 PM -5.1 °F -17.6 °F -11.0 °F 76% 30.35 in 10.0 mi NNW 5.8 mph - N/A   Clear